"Sample Date","Sample Time","Sample Value","Units","Flow Rate","Sample Interval","Number Channels","Micron Size 0","Counts/Channel 0","Micron Size 1","Counts/Channel 1","Micron Size 2","Counts/Channel 2","Micron Size 3","Counts/Channel 3","Micron Size 4","Counts/Channel 4","Micron Size 5","Counts/Channel 5","Micron Size 6","Counts/Channel 6","Micron Size 7","Counts/Channel 7","Micron Size 8","Counts/Channel 8","Micron Size 9","Counts/Channel 9","Micron Size 10","Counts/Channel 10","Micron Size 11","Counts/Channel 11","Micron Size 12","Counts/Channel 12","Micron Size 13","Counts/Channel 13","Micron Size 14","Counts/Channel 14","Micron Size 15","Counts/Channel 15","Micron Size 16","Counts/Channel 16","Micron Size 17","Counts/Channel 17","Micron Size 18","Counts/Channel 18","Micron Size 19","Counts/Channel 19","Micron Size 20","Counts/Channel 20","Micron Size 21","Counts/Channel 21","Micron Size 22","Counts/Channel 22","Micron Size 23","Counts/Channel 23","Micron Size 24","Counts/Channel 24","Micron Size 25","Counts/Channel 25","Micron Size 26","Counts/Channel 26","Micron Size 27","Counts/Channel 27","Micron Size 28","Counts/Channel 28","Micron Size 29","Counts/Channel 29","Micron Size 30","Counts/Channel 30","Micron Size 31","Counts/Channel 31"
"04/01/08","14:00:00",6714.000,"cc",28340.465,6.00,6,0.100,5031.000,0.200,556.000,0.300,456.000,0.500,488.000,1.000,183.000,5.000,0
"04/01/08","14:00:06",6625.000,"cc",28326.898,6.00,6,0.100,4926.000,0.200,576.000,0.300,443.000,0.500,493.000,1.000,187.000,5.000,0
"04/01/08","14:00:12",6708.000,"cc",28329.789,6.00,6,0.100,5041.000,0.200,558.000,0.300,412.000,0.500,490.000,1.000,207.000,5.000,0
"04/01/08","14:00:18",6887.000,"cc",28282.428,6.00,6,0.100,5210.000,0.200,553.000,0.300,430.000,0.500,506.000,1.000,188.000,5.000,0
"04/01/08","14:00:24",6674.000,"cc",28285.516,6.00,6,0.100,5052.000,0.200,497.000,0.300,433.000,0.500,516.000,1.000,176.000,5.000,0
"04/01/08","14:00:30",6759.000,"cc",28334.998,6.00,6,0.100,5123.000,0.200,553.000,0.300,383.000,0.500,485.000,1.000,215.000,5.000,0
"04/01/08","14:00:36",6732.000,"cc",28296.277,6.00,6,0.100,5014.000,0.200,614.000,0.300,412.000,0.500,515.000,1.000,177.000,5.000,0
"04/01/08","14:00:42",6833.000,"cc",28325.752,6.00,6,0.100,5106.000,0.200,569.000,0.300,458.000,0.500,483.000,1.000,217.000,5.000,0
"04/01/08","14:00:48",6680.000,"cc",28315.152,6.00,6,0.100,5050.000,0.200,532.000,0.300,422.000,0.500,483.000,1.000,193.000,5.000,0
"04/01/08","14:00:54",6803.000,"cc",28316.934,6.00,6,0.100,5106.000,0.200,574.000,0.300,415.000,0.500,494.000,1.000,214.000,5.000,0
"04/01/08","14:01:00",6607.000,"cc",28342.236,6.00,6,0.100,4954.000,0.200,552.000,0.300,407.000,0.500,490.000,1.000,204.000,5.000,0
"04/01/08","14:01:06",6573.000,"cc",28322.842,6.00,6,0.100,5015.000,0.200,504.000,0.300,391.000,0.500,488.000,1.000,175.000,5.000,0
"04/01/08","14:01:12",6822.000,"cc",28280.772,6.00,6,0.100,5152.000,0.200,551.000,0.300,437.000,0.500,474.000,1.000,208.000,5.000,0
"04/01/08","14:01:18",6724.000,"cc",28312.674,6.00,6,0.100,5072.000,0.200,538.000,0.300,391.000,0.500,523.000,1.000,200.000,5.000,0
"04/01/08","14:01:24",6859.000,"cc",28340.123,6.00,6,0.100,5104.000,0.200,557.000,0.300,476.000,0.500,511.000,1.000,211.000,5.000,0
"04/01/08","14:01:30",6729.000,"cc",28292.283,6.00,6,0.100,5096.000,0.200,547.000,0.300,423.000,0.500,476.000,1.000,187.000,5.000,0
"04/01/08","14:01:36",6917.000,"cc",28328.910,6.00,6,0.100,5189.000,0.200,561.000,0.300,474.000,0.500,511.000,1.000,182.000,5.000,0
"04/01/08","14:01:42",6921.000,"cc",28404.775,6.00,6,0.100,5201.000,0.200,586.000,0.300,443.000,0.500,493.000,1.000,198.000,5.000,0
"04/01/08","14:01:48",7017.000,"cc",28312.904,6.00,6,0.100,5349.000,0.200,573.000,0.300,386.000,0.500,502.000,1.000,207.000,5.000,0
"04/01/08","14:01:54",7115.000,"cc",28284.215,6.00,6,0.100,5500.000,0.200,561.000,0.300,395.000,0.500,490.000,1.000,169.000,5.000,0
"04/01/08","14:02:00",7055.000,"cc",28319.945,6.00,6,0.100,5415.000,0.200,516.000,0.300,420.000,0.500,518.000,1.000,186.000,5.000,0
"04/01/08","14:02:06",7119.000,"cc",28285.277,6.00,6,0.100,5491.000,0.200,531.000,0.300,407.000,0.500,497.000,1.000,193.000,5.000,0
"04/01/08","14:02:12",7145.000,"cc",28281.932,6.00,6,0.100,5498.000,0.200,545.000,0.300,420.000,0.500,501.000,1.000,181.000,5.000,0
"04/01/08","14:02:18",7092.000,"cc",28362.236,6.00,6,0.100,5474.000,0.200,536.000,0.300,421.000,0.500,473.000,1.000,188.000,5.000,0
"04/01/08","14:02:24",7137.000,"cc",28342.408,6.00,6,0.100,5477.000,0.200,533.000,0.300,428.000,0.500,506.000,1.000,193.000,5.000,0
"04/01/08","14:02:30",7041.000,"cc",28315.039,6.00,6,0.100,5406.000,0.200,548.000,0.300,420.000,0.500,482.000,1.000,185.000,5.000,0
"04/01/08","14:02:36",7124.000,"cc",28292.545,6.00,6,0.100,5540.000,0.200,519.000,0.300,397.000,0.500,502.000,1.000,166.000,5.000,0
"04/01/08","14:02:42",7273.000,"cc",28336.871,6.00,6,0.100,5720.000,0.200,505.000,0.300,413.000,0.500,484.000,1.000,151.000,5.000,0
"04/01/08","14:02:48",7599.000,"cc",28321.365,6.00,6,0.100,5913.000,0.200,552.000,0.300,455.000,0.500,486.000,1.000,193.000,5.000,0
"04/01/08","14:02:54",7924.000,"cc",28302.856,6.00,6,0.100,6244.000,0.200,538.000,0.300,424.000,0.500,504.000,1.000,214.000,5.000,0
"04/01/08","14:03:00",7541.000,"cc",28307.986,6.00,6,0.100,5977.000,0.200,548.000,0.300,409.000,0.500,441.000,1.000,166.000,5.000,0
"04/01/08","14:03:06",7471.000,"cc",28343.428,6.00,6,0.100,5883.000,0.200,548.000,0.300,400.000,0.500,449.000,1.000,191.000,5.000,0
"04/01/08","14:03:12",7482.000,"cc",28369.252,6.00,6,0.100,5865.000,0.200,569.000,0.300,384.000,0.500,466.000,1.000,198.000,5.000,0
"04/01/08","14:03:18",7693.000,"cc",28309.190,6.00,6,0.100,6053.000,0.200,512.000,0.300,423.000,0.500,511.000,1.000,194.000,5.000,0
"04/01/08","14:03:24",7707.000,"cc",28237.164,6.00,6,0.100,6092.000,0.200,528.000,0.300,430.000,0.500,470.000,1.000,187.000,5.000,0
"04/01/08","14:03:30",7681.000,"cc",28267.289,6.00,6,0.100,6004.000,0.200,565.000,0.300,406.000,0.500,505.000,1.000,201.000,5.000,0
"04/01/08","14:03:36",7635.000,"cc",28333.805,6.00,6,0.100,6055.000,0.200,536.000,0.300,421.000,0.500,488.000,1.000,135.000,5.000,0
"04/01/08","14:03:42",7900.000,"cc",28349.500,6.00,6,0.100,6229.000,0.200,595.000,0.300,404.000,0.500,472.000,1.000,200.000,5.000,0
"04/01/08","14:03:48",7772.000,"cc",28329.121,6.00,6,0.100,6098.000,0.200,515.000,0.300,428.000,0.500,529.000,1.000,202.000,5.000,0
"04/01/08","14:03:54",7761.000,"cc",28341.316,6.00,6,0.100,6155.000,0.200,520.000,0.300,402.000,0.500,495.000,1.000,189.000,5.000,0
"04/01/08","14:04:00",7509.000,"cc",28266.231,6.00,6,0.100,5849.000,0.200,551.000,0.300,430.000,0.500,503.000,1.000,176.000,5.000,0
"04/01/08","14:04:06",7771.000,"cc",28310.426,6.00,6,0.100,6099.000,0.200,554.000,0.300,434.000,0.500,489.000,1.000,195.000,5.000,0
"04/01/08","14:04:12",7908.000,"cc",28348.631,6.00,6,0.100,6341.000,0.200,521.000,0.300,401.000,0.500,456.000,1.000,189.000,5.000,0
"04/01/08","14:04:18",7933.000,"cc",28377.670,6.00,6,0.100,6367.000,0.200,518.000,0.300,405.000,0.500,459.000,1.000,184.000,5.000,0
"04/01/08","14:04:24",7935.000,"cc",28312.080,6.00,6,0.100,6301.000,0.200,587.000,0.300,446.000,0.500,425.000,1.000,176.000,5.000,0
"04/01/08","14:04:30",7953.000,"cc",28257.949,6.00,6,0.100,6278.000,0.200,595.000,0.300,401.000,0.500,484.000,1.000,195.000,5.000,0
"04/01/08","14:04:36",7898.000,"cc",28302.885,6.00,6,0.100,6337.000,0.200,528.000,0.300,414.000,0.500,447.000,1.000,172.000,5.000,0
"04/01/08","14:04:42",8093.000,"cc",28291.385,6.00,6,0.100,6468.000,0.200,527.000,0.300,415.000,0.500,525.000,1.000,158.000,5.000,0
"04/01/08","14:04:48",7929.000,"cc",28293.408,6.00,6,0.100,6332.000,0.200,546.000,0.300,400.000,0.500,462.000,1.000,189.000,5.000,0
"04/01/08","14:04:54",8203.000,"cc",28319.238,6.00,6,0.100,6558.000,0.200,573.000,0.300,420.000,0.500,467.000,1.000,185.000,5.000,0
"04/01/08","14:05:00",7891.000,"cc",28334.481,6.00,6,0.100,6223.000,0.200,561.000,0.300,439.000,0.500,464.000,1.000,204.000,5.000,0
"04/01/08","14:05:06",7889.000,"cc",28298.111,6.00,6,0.100,6312.000,0.200,511.000,0.300,419.000,0.500,434.000,1.000,213.000,5.000,0
"04/01/08","14:05:12",7924.000,"cc",28351.918,6.00,6,0.100,6292.000,0.200,543.000,0.300,429.000,0.500,479.000,1.000,181.000,5.000,0
"04/01/08","14:05:18",7734.000,"cc",28338.533,6.00,6,0.100,6102.000,0.200,521.000,0.300,428.000,0.500,521.000,1.000,162.000,5.000,0
"04/01/08","14:05:24",7453.000,"cc",28317.537,6.00,6,0.100,5864.000,0.200,559.000,0.300,434.000,0.500,415.000,1.000,181.000,5.000,0
"04/01/08","14:05:30",7706.000,"cc",28363.865,6.00,6,0.100,5995.000,0.200,538.000,0.300,451.000,0.500,533.000,1.000,189.000,5.000,0
"04/01/08","14:05:36",7485.000,"cc",28295.533,6.00,6,0.100,5909.000,0.200,504.000,0.300,413.000,0.500,486.000,1.000,173.000,5.000,0
"04/01/08","14:05:42",7742.000,"cc",28235.445,6.00,6,0.100,6098.000,0.200,563.000,0.300,413.000,0.500,494.000,1.000,174.000,5.000,0
"04/01/08","14:05:48",7794.000,"cc",28274.793,6.00,6,0.100,6123.000,0.200,561.000,0.300,446.000,0.500,477.000,1.000,187.000,5.000,0
"04/01/08","14:05:54",7877.000,"cc",28367.731,6.00,6,0.100,6244.000,0.200,583.000,0.300,411.000,0.500,446.000,1.000,193.000,5.000,0
"04/01/08","14:06:00",7449.000,"cc",28306.977,6.00,6,0.100,5836.000,0.200,529.000,0.300,439.000,0.500,459.000,1.000,186.000,5.000,0
"04/01/08","14:06:06",7776.000,"cc",28310.147,6.00,6,0.100,6115.000,0.200,562.000,0.300,437.000,0.500,478.000,1.000,184.000,5.000,0
"04/01/08","14:06:12",7676.000,"cc",28366.629,6.00,6,0.100,6052.000,0.200,565.000,0.300,422.000,0.500,484.000,1.000,153.000,5.000,0
"04/01/08","14:06:18",7438.000,"cc",28330.430,6.00,6,0.100,5839.000,0.200,529.000,0.300,428.000,0.500,478.000,1.000,164.000,5.000,0
"04/01/08","14:06:24",7586.000,"cc",28320.326,6.00,6,0.100,5970.000,0.200,542.000,0.300,413.000,0.500,451.000,1.000,210.000,5.000,0
"04/01/08","14:06:30",7662.000,"cc",28304.287,6.00,6,0.100,5986.000,0.200,586.000,0.300,446.000,0.500,452.000,1.000,192.000,5.000,0
"04/01/08","14:06:36",7501.000,"cc",28295.918,6.00,6,0.100,5886.000,0.200,504.000,0.300,399.000,0.500,526.000,1.000,186.000,5.000,0
"04/01/08","14:06:42",7439.000,"cc",28271.854,6.00,6,0.100,5805.000,0.200,530.000,0.300,459.000,0.500,467.000,1.000,178.000,5.000,0
"04/01/08","14:06:48",7379.000,"cc",28340.191,6.00,6,0.100,5758.000,0.200,507.000,0.300,432.000,0.500,495.000,1.000,187.000,5.000,0
"04/01/08","14:06:54",7470.000,"cc",28394.537,6.00,6,0.100,5765.000,0.200,608.000,0.300,425.000,0.500,474.000,1.000,198.000,5.000,0
"04/01/08","14:07:00",7342.000,"cc",28249.578,6.00,6,0.100,5725.000,0.200,542.000,0.300,407.000,0.500,490.000,1.000,178.000,5.000,0
"04/01/08","14:07:06",7355.000,"cc",28254.838,6.00,6,0.100,5675.000,0.200,575.000,0.300,405.000,0.500,509.000,1.000,191.000,5.000,0
"04/01/08","14:07:12",7275.000,"cc",28349.227,6.00,6,0.100,5553.000,0.200,583.000,0.300,461.000,0.500,489.000,1.000,189.000,5.000,0
"04/01/08","14:07:18",7481.000,"cc",28308.106,6.00,6,0.100,5797.000,0.200,552.000,0.300,438.000,0.500,483.000,1.000,211.000,5.000,0
"04/01/08","14:07:24",7407.000,"cc",28355.619,6.00,6,0.100,5835.000,0.200,489.000,0.300,431.000,0.500,466.000,1.000,186.000,5.000,0
"04/01/08","14:07:30",7439.000,"cc",28318.443,6.00,6,0.100,5784.000,0.200,571.000,0.300,427.000,0.500,459.000,1.000,198.000,5.000,0
"04/01/08","14:07:36",7348.000,"cc",28303.940,6.00,6,0.100,5791.000,0.200,527.000,0.300,397.000,0.500,451.000,1.000,182.000,5.000,0
"04/01/08","14:07:42",7251.000,"cc",28218.561,6.00,6,0.100,5537.000,0.200,586.000,0.300,436.000,0.500,495.000,1.000,197.000,5.000,0
"04/01/08","14:07:48",7449.000,"cc",28328.131,6.00,6,0.100,5805.000,0.200,553.000,0.300,440.000,0.500,449.000,1.000,202.000,5.000,0
"04/01/08","14:07:54",7328.000,"cc",28409.469,6.00,6,0.100,5745.000,0.200,503.000,0.300,412.000,0.500,472.000,1.000,196.000,5.000,0
"04/01/08","14:08:00",7632.000,"cc",28325.260,6.00,6,0.100,5962.000,0.200,566.000,0.300,400.000,0.500,500.000,1.000,204.000,5.000,0
"04/01/08","14:08:06",8213.000,"cc",28284.936,6.00,6,0.100,6554.000,0.200,559.000,0.300,417.000,0.500,511.000,1.000,172.000,5.000,0
"04/01/08","14:08:12",8360.000,"cc",28343.822,6.00,6,0.100,6655.000,0.200,550.000,0.300,439.000,0.500,512.000,1.000,204.000,5.000,0
"04/01/08","14:08:18",8065.000,"cc",28290.449,6.00,6,0.100,6399.000,0.200,527.000,0.300,441.000,0.500,520.000,1.000,178.000,5.000,0
"04/01/08","14:08:24",8416.000,"cc",28329.029,6.00,6,0.100,6761.000,0.200,586.000,0.300,412.000,0.500,468.000,1.000,189.000,5.000,0
"04/01/08","14:08:30",8383.000,"cc",28333.387,6.00,6,0.100,6720.000,0.200,558.000,0.300,436.000,0.500,502.000,1.000,167.000,5.000,0
"04/01/08","14:08:36",8385.000,"cc",28315.270,6.00,6,0.100,6734.000,0.200,558.000,0.300,426.000,0.500,488.000,1.000,179.000,5.000,0
"04/01/08","14:08:42",8489.000,"cc",28306.641,6.00,6,0.100,6808.000,0.200,560.000,0.300,442.000,0.500,496.000,1.000,183.000,5.000,0
"04/01/08","14:08:48",8118.000,"cc",28353.100,6.00,6,0.100,6452.000,0.200,554.000,0.300,463.000,0.500,468.000,1.000,181.000,5.000,0
"04/01/08","14:08:54",7848.000,"cc",28324.549,6.00,6,0.100,6273.000,0.200,567.000,0.300,392.000,0.500,426.000,1.000,190.000,5.000,0
"04/01/08","14:09:00",7910.000,"cc",28300.191,6.00,6,0.100,6299.000,0.200,541.000,0.300,422.000,0.500,478.000,1.000,170.000,5.000,0
"04/01/08","14:09:06",7812.000,"cc",28362.691,6.00,6,0.100,6234.000,0.200,529.000,0.300,431.000,0.500,445.000,1.000,173.000,5.000,0
"04/01/08","14:09:12",7914.000,"cc",28298.369,6.00,6,0.100,6255.000,0.200,537.000,0.300,445.000,0.500,500.000,1.000,177.000,5.000,0
"04/01/08","14:09:18",7869.000,"cc",28334.881,6.00,6,0.100,6278.000,0.200,518.000,0.300,427.000,0.500,463.000,1.000,183.000,5.000,0
"04/01/08","14:09:24",7944.000,"cc",28303.178,6.00,6,0.100,6235.000,0.200,587.000,0.300,457.000,0.500,466.000,1.000,199.000,5.000,0
"04/01/08","14:09:30",7836.000,"cc",28301.627,6.00,6,0.100,6156.000,0.200,578.000,0.300,420.000,0.500,500.000,1.000,182.000,5.000,0
"04/01/08","14:09:36",7866.000,"cc",28321.387,6.00,6,0.100,6204.000,0.200,548.000,0.300,433.000,0.500,494.000,1.000,187.000,5.000,0
"04/01/08","14:09:42",7753.000,"cc",28302.488,6.00,6,0.100,6084.000,0.200,567.000,0.300,436.000,0.500,496.000,1.000,170.000,5.000,0
"04/01/08","14:09:48",7833.000,"cc",28322.016,6.00,6,0.100,6228.000,0.200,556.000,0.300,414.000,0.500,457.000,1.000,178.000,5.000,0
"04/01/08","14:09:54",7741.000,"cc",28282.225,6.00,6,0.100,6164.000,0.200,529.000,0.300,423.000,0.500,472.000,1.000,153.000,5.000,0
"04/01/08","14:10:00",7655.000,"cc",28395.848,6.00,6,0.100,6004.000,0.200,541.000,0.300,446.000,0.500,469.000,1.000,195.000,5.000,0
"04/01/08","14:10:06",7831.000,"cc",28309.408,6.00,6,0.100,6123.000,0.200,564.000,0.300,456.000,0.500,496.000,1.000,192.000,5.000,0
"04/01/08","14:10:12",7892.000,"cc",28294.342,6.00,6,0.100,6299.000,0.200,530.000,0.300,433.000,0.500,443.000,1.000,187.000,5.000,0
"04/01/08","14:10:18",8195.000,"cc",28339.350,6.00,6,0.100,6553.000,0.200,555.000,0.300,440.000,0.500,474.000,1.000,173.000,5.000,0
"04/01/08","14:10:24",8161.000,"cc",28309.150,6.00,6,0.100,6516.000,0.200,552.000,0.300,431.000,0.500,489.000,1.000,173.000,5.000,0
"04/01/08","14:10:30",8165.000,"cc",28310.906,6.00,6,0.100,6588.000,0.200,521.000,0.300,418.000,0.500,453.000,1.000,185.000,5.000,0
"04/01/08","14:10:36",8010.000,"cc",28300.707,6.00,6,0.100,6381.000,0.200,560.000,0.300,385.000,0.500,496.000,1.000,188.000,5.000,0
"04/01/08","14:10:42",7680.000,"cc",28354.217,6.00,6,0.100,6123.000,0.200,532.000,0.300,408.000,0.500,455.000,1.000,162.000,5.000,0
"04/01/08","14:10:48",7586.000,"cc",28301.162,6.00,6,0.100,6029.000,0.200,518.000,0.300,411.000,0.500,449.000,1.000,179.000,5.000,0
"04/01/08","14:10:54",7823.000,"cc",28333.113,6.00,6,0.100,6173.000,0.200,550.000,0.300,463.000,0.500,467.000,1.000,170.000,5.000,0
"04/01/08","14:11:00",7789.000,"cc",28261.051,6.00,6,0.100,6156.000,0.200,550.000,0.300,393.000,0.500,504.000,1.000,186.000,5.000,0
"04/01/08","14:11:06",7812.000,"cc",28360.582,6.00,6,0.100,6156.000,0.200,548.000,0.300,447.000,0.500,504.000,1.000,157.000,5.000,0
"04/01/08","14:11:12",7638.000,"cc",28290.975,6.00,6,0.100,5955.000,0.200,562.000,0.300,439.000,0.500,511.000,1.000,171.000,5.000,0
"04/01/08","14:11:18",7613.000,"cc",28324.238,6.00,6,0.100,5934.000,0.200,599.000,0.300,432.000,0.500,491.000,1.000,157.000,5.000,0
"04/01/08","14:11:24",7786.000,"cc",28360.176,6.00,6,0.100,6115.000,0.200,570.000,0.300,406.000,0.500,506.000,1.000,189.000,5.000,0
"04/01/08","14:11:30",7842.000,"cc",28340.066,6.00,6,0.100,6094.000,0.200,578.000,0.300,460.000,0.500,511.000,1.000,199.000,5.000,0
"04/01/08","14:11:36",8019.000,"cc",28292.350,6.00,6,0.100,6298.000,0.200,574.000,0.300,440.000,0.500,516.000,1.000,191.000,5.000,0
"04/01/08","14:11:42",7935.000,"cc",28311.225,6.00,6,0.100,6258.000,0.200,586.000,0.300,428.000,0.500,483.000,1.000,180.000,5.000,0
"04/01/08","14:11:48",8134.000,"cc",28336.381,6.00,6,0.100,6434.000,0.200,601.000,0.300,418.000,0.500,498.000,1.000,183.000,5.000,0
"04/01/08","14:11:54",8021.000,"cc",28249.897,6.00,6,0.100,6393.000,0.200,535.000,0.300,432.000,0.500,484.000,1.000,177.000,5.000,0
"04/01/08","14:12:00",8405.000,"cc",28281.627,6.00,6,0.100,6606.000,0.200,616.000,0.300,456.000,0.500,517.000,1.000,210.000,5.000,0
"04/01/08","14:12:06",8404.000,"cc",28346.402,6.00,6,0.100,6680.000,0.200,556.000,0.300,445.000,0.500,524.000,1.000,199.000,5.000,0
"04/01/08","14:12:12",8311.000,"cc",28309.303,6.00,6,0.100,6584.000,0.200,596.000,0.300,424.000,0.500,514.000,1.000,193.000,5.000,0
"04/01/08","14:12:18",8294.000,"cc",28329.633,6.00,6,0.100,6561.000,0.200,584.000,0.300,448.000,0.500,507.000,1.000,194.000,5.000,0
"04/01/08","14:12:24",8126.000,"cc",28383.748,6.00,6,0.100,6410.000,0.200,615.000,0.300,413.000,0.500,486.000,1.000,202.000,5.000,0
"04/01/08","14:12:30",8197.000,"cc",28244.518,6.00,6,0.100,6501.000,0.200,565.000,0.300,434.000,0.500,508.000,1.000,189.000,5.000,0
"04/01/08","14:12:36",8216.000,"cc",28308.832,6.00,6,0.100,6481.000,0.200,590.000,0.300,475.000,0.500,508.000,1.000,162.000,5.000,0
"04/01/08","14:12:42",8017.000,"cc",28371.527,6.00,6,0.100,6298.000,0.200,585.000,0.300,449.000,0.500,506.000,1.000,179.000,5.000,0
"04/01/08","14:12:48",8188.000,"cc",28352.533,6.00,6,0.100,6442.000,0.200,595.000,0.300,473.000,0.500,485.000,1.000,193.000,5.000,0
"04/01/08","14:12:54",7856.000,"cc",28255.604,6.00,6,0.100,6161.000,0.200,584.000,0.300,419.000,0.500,467.000,1.000,225.000,5.000,0
"04/01/08","14:13:00",7932.000,"cc",28343.135,6.00,6,0.100,6249.000,0.200,554.000,0.300,434.000,0.500,523.000,1.000,172.000,5.000,0
"04/01/08","14:13:06",8015.000,"cc",28323.500,6.00,6,0.100,6252.000,0.200,638.000,0.300,434.000,0.500,500.000,1.000,191.000,5.000,0
"04/01/08","14:13:12",7873.000,"cc",28332.221,6.00,6,0.100,6209.000,0.200,536.000,0.300,445.000,0.500,474.000,1.000,209.000,5.000,0
"04/01/08","14:13:18",8003.000,"cc",28316.824,6.00,6,0.100,6347.000,0.200,542.000,0.300,430.000,0.500,499.000,1.000,185.000,5.000,0
"04/01/08","14:13:24",7943.000,"cc",28307.914,6.00,6,0.100,6258.000,0.200,549.000,0.300,422.000,0.500,500.000,1.000,214.000,5.000,0
"04/01/08","14:13:30",7895.000,"cc",28317.373,6.00,6,0.100,6238.000,0.200,521.000,0.300,442.000,0.500,487.000,1.000,207.000,5.000,0
"04/01/08","14:13:36",8084.000,"cc",28327.672,6.00,6,0.100,6274.000,0.200,592.000,0.300,461.000,0.500,544.000,1.000,213.000,5.000,0
"04/01/08","14:13:42",7952.000,"cc",28331.578,6.00,6,0.100,6242.000,0.200,557.000,0.300,478.000,0.500,486.000,1.000,189.000,5.000,0
"04/01/08","14:13:48",8080.000,"cc",28290.977,6.00,6,0.100,6368.000,0.200,555.000,0.300,444.000,0.500,511.000,1.000,202.000,5.000,0
"04/01/08","14:13:54",7914.000,"cc",28323.981,6.00,6,0.100,6246.000,0.200,544.000,0.300,405.000,0.500,533.000,1.000,186.000,5.000,0
"04/01/08","14:14:00",7945.000,"cc",28339.887,6.00,6,0.100,6193.000,0.200,588.000,0.300,448.000,0.500,514.000,1.000,202.000,5.000,0
"04/01/08","14:14:06",7937.000,"cc",28310.281,6.00,6,0.100,6252.000,0.200,545.000,0.300,423.000,0.500,525.000,1.000,192.000,5.000,0
"04/01/08","14:14:12",8131.000,"cc",28324.908,6.00,6,0.100,6359.000,0.200,612.000,0.300,451.000,0.500,526.000,1.000,183.000,5.000,0
"04/01/08","14:14:18",7989.000,"cc",28313.961,6.00,6,0.100,6278.000,0.200,551.000,0.300,433.000,0.500,515.000,1.000,212.000,5.000,0
"04/01/08","14:14:24",7781.000,"cc",28356.881,6.00,6,0.100,6091.000,0.200,576.000,0.300,415.000,0.500,512.000,1.000,187.000,5.000,0
"04/01/08","14:14:30",7828.000,"cc",28292.947,6.00,6,0.100,6045.000,0.200,598.000,0.300,443.000,0.500,526.000,1.000,216.000,5.000,0
"04/01/08","14:14:36",7857.000,"cc",28307.207,6.00,6,0.100,6191.000,0.200,538.000,0.300,436.000,0.500,499.000,1.000,193.000,5.000,0
"04/01/08","14:14:42",7776.000,"cc",28334.711,6.00,6,0.100,6101.000,0.200,568.000,0.300,442.000,0.500,471.000,1.000,194.000,5.000,0
"04/01/08","14:14:48",7799.000,"cc",28269.303,6.00,6,0.100,6114.000,0.200,558.000,0.300,430.000,0.500,517.000,1.000,180.000,5.000,0
"04/01/08","14:14:54",7862.000,"cc",28312.371,6.00,6,0.100,6150.000,0.200,581.000,0.300,448.000,0.500,502.000,1.000,181.000,5.000,0
"04/01/08","14:15:00",7774.000,"cc",28287.709,6.00,6,0.100,6074.000,0.200,538.000,0.300,439.000,0.500,516.000,1.000,207.000,5.000,0
"04/01/08","14:15:06",7823.000,"cc",28301.990,6.00,6,0.100,6050.000,0.200,586.000,0.300,455.000,0.500,536.000,1.000,196.000,5.000,0
"04/01/08","14:15:12",7921.000,"cc",28345.025,6.00,6,0.100,6237.000,0.200,554.000,0.300,431.000,0.500,520.000,1.000,179.000,5.000,0
"04/01/08","14:15:18",8142.000,"cc",28301.631,6.00,6,0.100,6405.000,0.200,549.000,0.300,482.000,0.500,512.000,1.000,194.000,5.000,0
"04/01/08","14:15:24",8012.000,"cc",28292.553,6.00,6,0.100,6277.000,0.200,593.000,0.300,446.000,0.500,519.000,1.000,177.000,5.000,0
"04/01/08","14:15:30",8003.000,"cc",28352.762,6.00,6,0.100,6231.000,0.200,609.000,0.300,462.000,0.500,514.000,1.000,187.000,5.000,0
"04/01/08","14:15:36",8009.000,"cc",28339.664,6.00,6,0.100,6332.000,0.200,559.000,0.300,418.000,0.500,496.000,1.000,204.000,5.000,0
"04/01/08","14:15:42",8080.000,"cc",28294.383,6.00,6,0.100,6190.000,0.200,590.000,0.300,507.000,0.500,574.000,1.000,219.000,5.000,0
"04/01/08","14:15:48",8026.000,"cc",28301.680,6.00,6,0.100,6316.000,0.200,584.000,0.300,443.000,0.500,507.000,1.000,176.000,5.000,0
"04/01/08","14:15:54",7971.000,"cc",28349.545,6.00,6,0.100,6185.000,0.200,578.000,0.300,471.000,0.500,520.000,1.000,217.000,5.000,0
"04/01/08","14:16:00",7956.000,"cc",28288.432,6.00,6,0.100,6172.000,0.200,591.000,0.300,451.000,0.500,535.000,1.000,207.000,5.000,0
"04/01/08","14:16:06",8204.000,"cc",28332.807,6.00,6,0.100,6472.000,0.200,600.000,0.300,430.000,0.500,510.000,1.000,192.000,5.000,0
"04/01/08","14:16:12",8218.000,"cc",28341.387,6.00,6,0.100,6476.000,0.200,552.000,0.300,450.000,0.500,531.000,1.000,209.000,5.000,0
"04/01/08","14:16:18",7947.000,"cc",28360.348,6.00,6,0.100,6218.000,0.200,596.000,0.300,426.000,0.500,501.000,1.000,206.000,5.000,0
"04/01/08","14:16:24",7778.000,"cc",28330.369,6.00,6,0.100,6071.000,0.200,596.000,0.300,436.000,0.500,498.000,1.000,177.000,5.000,0
"04/01/08","14:16:30",7938.000,"cc",28294.746,6.00,6,0.100,6225.000,0.200,545.000,0.300,458.000,0.500,518.000,1.000,192.000,5.000,0
"04/01/08","14:16:36",8321.000,"cc",28300.631,6.00,6,0.100,6559.000,0.200,596.000,0.300,459.000,0.500,524.000,1.000,183.000,5.000,0
"04/01/08","14:16:42",8133.000,"cc",28299.352,6.00,6,0.100,6379.000,0.200,571.000,0.300,448.000,0.500,559.000,1.000,176.000,5.000,0
"04/01/08","14:16:48",8151.000,"cc",28292.143,6.00,6,0.100,6453.000,0.200,571.000,0.300,428.000,0.500,505.000,1.000,194.000,5.000,0
"04/01/08","14:16:54",8312.000,"cc",28314.912,6.00,6,0.100,6589.000,0.200,574.000,0.300,446.000,0.500,515.000,1.000,188.000,5.000,0